Aérodrome :
LOGIN :

S'inscrire | Disclaimer

   EN    FR    IT 

 










Légende :    VFR   VFR Marginal   IFR   IFR Intensif   IFR Très Intensif
Visi : 
Plafond : 
>= 8 km
>= 3000ft
5 à 8 km
1000 à 3000 ft
1500m à 5 km
500 à 1000 ft
800 à 1500m
200 à 500 ft
< 800m
< 200 ft
Symboles :   Orages  Brouillard  Fortes neiges  Fortes précipitations  Vent > 20 kt
SIGMETs :   Divers  Orages  Givrage  Turbulence  Onde Orograph.  Cendres Volcan.







- Altitude de l'aérodrome : 80 ft
- Code IATA : LPL
- Voir les cartes d'approche


EGGP - Liverpool John Lennon

DERNIER METAR :
  • 281150Z 06011KT 9999 -RA SCT008 BKN012 BKN017 13/12 Q1001

METARs EXPIRÉS :
  • 281120Z 07012KT 9999 -RA FEW007 BKN010 BKN034 14/12 Q1001
  • 281050Z 05011KT 9999 -RA FEW007 BKN010 BKN034 13/12 Q1001
  • 281020Z 06013KT 9999 -RA FEW008 BKN013 BKN034 13/12 Q1001
  • 280950Z 06012KT 9999 -RA FEW008 BKN010 BKN015 14/12 Q1001
  • 280920Z 06013KT 9999 -RA SCT008 BKN012 BKN033 14/13 Q1001

TAF TAF EGGP
Valide du 28 à 12h jusqu'au 29 à 12h UTC


281106Z 2812/2912 06008KT 9999 FEW012 BKN022
TEMPO 2812/2912 6000 RADZ BKN012
PROB40
TEMPO 2812/2912 BKN008
BECMG 2818/2821 33010KT
ATIS : +44 151 907 2000 (option 5 or ext 5150)
Météo : +44 871 750 5150
Pas de NOTAMs connus pour ce terrain.



MET'MAP, la Météo Aéronautique d'un coup d'oeil ! - Copyright ORBIFLY Décembre 2007 - Disclaimer

ORBIFLY MET'MAP TEAM :

Programmation & Développement : Alexandra Zaïnal
Conception & Développement : Baudouin d'Aumeries
Co-Programmation & Développement : Marc-Olivier Méhu
Soutien technique & logistique : Manuel Goepfert

Contact : metmap@orbifly.com




SOURCES & CREDITS :

   NOAA